Track PROGRESS MS-31 now! 10-day predictions PROGRESS MS-31 is classified as:
1 64751U 25146A 25197.73223905 .00006509 00000-0 11952-3 0 9997 2 64751 51.6367 160.6113 0002844 25.5140 36.8267 15.50574159 1933